EW4214 Weather Reports


Display with metric or nautical units.
time (UTC)temp
F
wind
direction
speed
MPH
gust
MPH
rain 1hr
in
rain 24hr
in
rain mn
in
humidity
%
barometer
mb
20200930075957 94 187 0.0 4.0 0.00 0.87 0.01 59 1004.0
20200930074603 93 210 2.0 6.0 0.00 0.87 0.01 60 1004.2
20200930073438 92 222 1.0 4.0 0.00 0.87 0.01 61 1004.5
20200930072306 93 200 2.0 6.0 0.00 0.87 0.01 59 1004.6
20200930071116 93 196 0.0 4.0 0.00 0.87 0.01 59 1004.9
20200930065753 93 195 2.0 4.0 0.00 0.87 0.01 61 1004.9
20200930063949 93 217 0.0 2.0 0.00 0.87 0.01 61 1005.1
20200930063056 92 226 0.0 4.0 0.00 0.87 0.01 61 1005.3
20200930062009 93 189 0.0 4.0 0.00 0.87 0.01 57 1005.6
20200930061035 92 250 1.0 2.0 0.00 0.87 0.01 61 1005.9
20200930060201 93 223 1.0 3.0 0.00 0.87 0.01 59 1006.2
20200930055036 92 199 1.0 6.0 0.00 0.87 0.01 61 1006.4
20200930053936 92 200 0.0 3.0 0.00 0.87 0.01 61 1006.5
20200930052926 91 209 0.0 4.0 0.00 0.87 0.01 64 1007.0
20200930051922 91 184 1.0 3.0 0.00 0.87 0.01 63 1007.1
20200930050939 91 218 1.0 3.0 0.00 0.87 0.01 62 1007.1
20200930050316 90 245 2.0 4.0 0.00 0.87 0.01 67 1007.3
20200930045355 91 195 0.0 4.0 0.00 0.87 0.01 65 1007.5
20200930044414 91 206 0.0 3.0 0.00 0.87 0.01 66 1007.6
20200930043337 91 191 2.0 4.0 0.00 0.87 0.01 64 1007.8
20200930041854 91 196 0.0 3.0 0.00 0.87 0.01 66 1007.9
20200930040844 90 248 2.0 6.0 0.00 0.87 0.01 64 1007.9
20200930035839 90 232 0.0 2.0 0.00 0.87 0.01 66 1008.0
20200930034842 90 196 0.0 3.0 0.00 0.87 0.01 66 1008.3
20200930033832 89 192 0.0 3.0 0.00 0.87 0.01 69 1008.4
20200930032826 89 183 0.0 2.0 0.00 0.87 0.01 70 1008.4
20200930031828 90 240 1.0 3.0 0.00 0.87 0.01 68 1008.4
20200930030823 89 202 0.0 3.0 0.00 0.87 0.01 71 1008.4
20200930025822 88 179 0.0 2.0 0.00 0.87 0.01 72 1008.4
20200930024814 86 189 0.0 2.0 0.00 0.87 0.01 79 1008.4
20200930023808 86 197 0.0 2.0 0.00 0.87 0.01 78 1008.5
20200930022803 87 191 0.0 3.0 0.00 0.87 0.01 77 1008.5
20200930021803 87 197 0.0 2.0 0.00 0.87 0.01 76 1008.5
20200930020758 86 192 0.0 1.0 0.00 0.87 0.01 78 1008.3
20200930015753 86 186 0.0 1.0 0.00 0.87 0.01 80 1008.5
20200930014754 86 174 0.0 1.0 0.00 0.87 0.01 78 1008.5
20200930013752 86 176 0.0 1.0 0.00 0.87 0.01 80 1008.2
20200930012740 83 172 0.0 1.0 0.00 0.87 0.01 86 1008.3
20200930011733 82 169 0.0 1.0 0.00 0.87 0.01 87 1008.2
20200930010724 80 158 0.0 0.0 0.00 0.87 0.01 94 1008.1
20200930005715 79 170 0.0 0.0 0.00 0.87 0.01 96 1008.0
20200930004714 79 167 0.0 1.0 0.00 0.87 0.01 97 1008.0
20200930003705 78 166 0.0 0.0 0.00 0.87 0.01 98 1007.9
20200930002654 79 188 0.0 0.0 0.00 0.87 0.01 98 1007.7
20200930001652 79 191 0.0 0.0 0.00 0.87 0.01 98 1007.5
20200930000653 78 191 0.0 0.0 0.00 0.87 0.01 98 1007.4
20200929235646 78 190 0.0 0.0 0.00 0.87 0.01 98 1007.4
20200929234638 78 190 0.0 0.0 0.00 0.88 0.01 98 1007.1
20200929233629 78 190 0.0 0.0 0.00 0.88 0.01 98 1007.1
20200929232624 78 191 0.0 0.0 0.00 0.88 0.01 98 1007.0
20200929231616 78 190 0.0 0.0 0.01 0.88 0.01 98 1006.8
20200929230612 78 190 0.0 0.0 0.01 0.88 0.01 98 1006.7
20200929225604 78 190 0.0 0.0 0.01 0.88 0.01 98 1006.6
20200929224601 77 191 0.0 0.0 0.01 0.88 0.01 98 1006.5
20200929223554 78 190 0.0 0.0 0.01 0.88 0.01 98 1006.6
20200929222550 78 191 0.0 0.0 0.01 0.88 0.01 98 1006.4
20200929221538 77 190 0.0 0.0 0.00 0.87 0.00 98 1006.3
20200929220535 77 190 0.0 0.0 0.00 0.87 0.00 98 1006.2
20200929215531 77 195 0.0 0.0 0.00 0.87 0.00 98 1006.4
20200929214528 77 189 0.0 0.0 0.00 0.87 0.00 98 1006.2
20200929213516 78 194 0.0 0.0 0.00 0.87 0.00 98 1006.1
20200929212517 78 197 0.0 0.0 0.00 0.87 0.00 98 1006.2
20200929211523 78 194 0.0 0.0 0.00 0.87 0.00 98 1006.0
20200929210513 78 193 0.0 0.0 0.00 0.87 0.00 98 1006.1
20200929205454 78 193 0.0 0.0 0.00 0.87 0.00 98 1006.0
20200929204450 78 195 0.0 2.0 0.00 0.87 0.00 98 1006.1
20200929203438 79 171 0.0 0.0 0.00 0.87 0.00 98 1006.1
20200929202438 79 171 0.0 0.0 0.00 0.87 0.00 98 1006.2
20200929201445 79 171 0.0 0.0 0.00 0.87 0.00 98 1006.2
20200929200437 79 171 0.0 0.0 0.00 0.87 0.00 98 1006.2
20200929195434 79 171 0.0 0.0 0.00 0.87 0.00 98 1006.2
20200929194432 79 171 0.0 0.0 0.00 0.87 0.00 98 1006.3
20200929193417 79 171 0.0 0.0 0.00 0.87 0.00 98 1006.3
20200929192414 79 171 0.0 0.0 0.00 0.87 0.00 98 1006.4
20200929191405 79 171 0.0 0.0 0.00 0.87 0.00 98 1006.4
20200929190407 79 171 0.0 0.0 0.00 0.87 0.00 98 1006.5
20200929185401 79 171 0.0 0.0 0.00 0.87 0.00 98 1006.6
20200929184401 79 171 0.0 0.0 0.00 0.87 0.00 98 1006.9
20200929183349 79 171 0.0 0.0 0.00 0.87 0.00 98 1007.1
20200929182402 79 171 0.0 0.0 0.00 0.87 0.00 98 1007.0
20200929181352 79 171 0.0 0.0 0.00 0.87 0.00 98 1007.1
20200929180341 79 171 0.0 0.0 0.00 0.87 0.00 98 1007.1
20200929175348 79 171 0.0 0.0 0.00 0.88 0.00 98 1007.2
20200929174607 79 171 0.0 0.0 0.00 0.89 0.00 98 1007.5
20200929173323 79 171 0.0 0.0 0.00 0.89 0.00 98 1007.5
20200929172333 79 171 0.0 0.0 0.00 0.89 0.00 98 1007.5
20200929171410 79 171 0.0 0.0 0.00 0.89 0.00 98 1007.7
20200929170320 79 171 0.0 0.0 0.00 0.89 0.00 98 1007.7
20200929165319 79 171 0.0 0.0 0.01 0.89 0.89 98 1007.7
20200929164318 79 171 0.0 0.0 0.03 0.89 0.89 98 1007.9
20200929163309 79 171 0.0 0.0 0.04 0.89 0.89 98 1007.8
20200929162314 79 171 0.0 0.0 0.06 0.89 0.89 98 1007.7
20200929161309 79 171 0.0 0.0 0.06 0.89 0.89 98 1007.9
20200929160305 79 171 0.0 0.0 0.07 0.96 0.89 97 1008.0
20200929155247 79 176 0.0 0.0 0.07 1.01 0.88 97 1008.1
20200929154246 79 176 0.0 0.0 0.08 1.01 0.86 97 1008.1
20200929153244 79 164 0.0 1.0 0.09 1.05 0.85 97 1008.0
20200929152230 79 177 0.0 0.0 0.09 1.03 0.83 97 1008.0
20200929151226 79 163 0.0 0.0 0.12 1.03 0.83 97 1007.9
20200929150223 79 184 0.0 3.0 0.13 1.02 0.82 97 1007.9
20200929145218 79 161 0.0 0.0 0.16 1.01 0.81 97 1007.9
20200929144218 79 181 0.0 1.0 0.20 0.98 0.78 97 1008.0
20200929143324 79 175 0.0 1.0 0.32 0.96 0.76 97 1008.2
20200929142212 79 179 0.0 1.0 0.35 0.94 0.74 97 1008.1
20200929141519 79 174 0.0 1.0 0.45 0.91 0.71 97 1008.0
20200929140845 79 168 0.0 0.0 0.52 0.89 0.69 97 1007.9
20200929140038 78 173 0.0 0.0 0.53 0.85 0.65 96 1007.6
20200929134752 78 180 0.0 2.0 0.47 0.77 0.58 96 1007.6
20200929133759 79 184 0.0 2.0 0.38 0.63 0.44 96 1007.6
20200929132156 80 179 0.0 2.0 0.33 0.58 0.39 95 1007.3
20200929131235 80 173 0.0 1.0 0.20 0.45 0.26 95 1007.1
20200929130128 80 173 0.0 1.0 0.11 0.36 0.17 94 1006.6
20200929125124 81 178 1.0 1.0 0.07 0.32 0.12 94 1006.6
20200929124136 81 180 0.0 2.0 0.05 0.30 0.10 91 1006.5
20200929123158 81 201 0.0 1.0 0.02 0.25 0.05 90 1006.2
20200929122202 81 192 0.0 0.0 0.02 0.25 0.05 90 1006.0
20200929121106 81 192 0.0 1.0 0.02 0.25 0.05 89 1005.8
20200929120058 81 184 0.0 0.0 0.02 0.25 0.05 91 1005.6
20200929115052 81 191 0.0 2.0 0.02 0.25 0.05 91 1005.3
20200929114113 82 206 0.0 4.0 0.02 0.25 0.05 88 1005.2
20200929113040 84 186 1.0 2.0 0.00 0.23 0.03 80 1005.3
20200929112032 84 213 0.0 4.0 0.00 0.23 0.03 79 1005.2
20200929111032 84 201 1.0 6.0 0.00 0.24 0.03 79 1005.0
20200929110034 84 176 1.0 2.0 0.00 0.24 0.03 80 1004.8
20200929105031 84 190 0.0 2.0 0.00 0.24 0.03 79 1004.6
20200929104035 84 189 1.0 2.0 0.00 0.24 0.03 78 1004.5
20200929103219 85 152 1.0 4.0 0.00 0.24 0.03 77 1004.3
20200929102131 85 210 0.0 6.0 0.00 0.24 0.03 75 1004.0
20200929101104 85 87 1.0 4.0 0.00 0.24 0.03 74 1003.8
20200929100019 86 167 0.0 4.0 0.00 0.24 0.03 73 1003.8
20200929094959 86 234 2.0 6.0 0.00 0.24 0.03 73 1003.9
20200929093952 87 199 0.0 3.0 0.00 0.24 0.03 73 1003.7
20200929092956 87 250 1.0 3.0 0.00 0.24 0.03 72 1003.9
20200929091947 87 146 1.0 3.0 0.00 0.24 0.03 71 1003.6
20200929091013 87 38 1.0 6.0 0.00 0.24 0.03 71 1003.5
20200929090313 88 200 1.0 4.0 0.00 0.24 0.03 70 1003.4
20200929084953 89 142 0.0 4.0 0.00 0.24 0.03 69 1003.4
20200929084054 90 304 1.0 3.0 0.00 0.24 0.03 66 1003.5
20200929083754 90 193 1.0 3.0 0.00 0.24 0.03 67 1003.4
20200929082236 91 184 0.0 4.0 0.00 0.24 0.03 65 1003.6